Weather in Novopokrovka

Russia / Amur Oblast     50°36′38″N   128°12′55″E
temp.,
°C
wind,
m/s
gust,
m/s
humid.,
%
clouds,
%
prec.,
mm/h
press.,
hPa
HPBL,
m
17 april, sat
sat1700:00+2nne61198100 3.6 1009524
03:00+2nne5998100 6.2 1009417
06:00+1n5896100 0.3 1010410
09:00+1n4795100 0.4 1012285
12:00+3n348598 0.0 1013302
15:00+7e117156 0.0 1012487
18:00+7ssw23715 0.0 1012341
21:00+4ssw34891 0.0 101359
18 april, sun
sun1800:00+2ssw34870 0.0 101359
03:00+1ssw33860 0.0 101239
06:00+1s35830 0.0 101284
09:00+7s46560 0.0 1012372
12:00+11ssw55410 0.0 1010864
15:00+13ssw55380 0.0 10071173
18:00+12s46465 0.0 1006517
21:00+8s35624 0.0 100660
19 april, mon
mon1900:00+6s35674 0.0 100567
03:00+5s357177 0.0 100476
06:00+4ssw357237 0.0 100375
09:00+4nnw1012557 0.0 1007860
12:00+5nw1013375 0.0 10091385
15:00+6nw1215250 0.0 10102030
18:00+4nw1016270 0.0 10112284
21:000nw813323 0.0 1013891
20 april, tue
tue2000:00−1nw1019330 0.0 10131648
03:00−2nw1019320 0.0 10121390
06:00−3nw918300 0.0 10131166
09:00+1nw813220 0.0 10141109
12:00+7nw811140 0.0 10131438
15:00+11wnw69170 0.0 10121598
18:00+12w46260 0.0 1011226
21:00+7s333712 0.0 101224
21 april, wed
wed2100:00+6s485230 0.0 1011103
03:00+5sse336191 0.0 101137
06:00+4s3461100 0.0 101149
09:00+8ssw1153100 0.0 1012110
12:00+12n5546100 0.0 1013770
15:00+13ne4543100 0.0 1013852
18:00+13nne5746100 0.0 1014750
21:00+8ne51071100 0.0 1015269